Погода в Кыштовке

Россия / Новосибирская область     56°33′44″N   76°37′21″E
темп.,
°C
ветер,
м/с
пор.,
м/с
влажн.,
%
обл.,
%
осадки,
мм/ч
давл.,
гПа
погр.,
м
24 октября, вс
вс2401:00+8юз81683100 0.1 1008702
04:00+8зюз816835 0.2 1008701
07:00+7зюз7158549 0.2 1010626
10:00+6зюз713844 0.0 1012723
13:00+8зюз712745 0.0 10131105
16:00+9зюз61170100 0.0 10141205
19:00+8юз51179100 0.0 1016335
22:00+7ююз41082100 0.0 1015263
25 октября, пн
пн2501:00+7ююз51187100 0.0 1013282
04:00+9ююз81684100 0.1 1009639
07:00+8юз81570100 0.1 1008765
10:00+8юз81658100 0.0 1007761
13:00+8з9157249 0.0 10101135
16:00+7з6116468 0.0 10131186
19:00+5зюз347588 0.0 101466
22:00+4юз2279100 0.0 101513
26 октября, вт
вт2601:00+4ююв2477100 0.0 101483
04:00+5ю4780100 0.1 1011477
07:00+4ююв41096100 2.4 1008442
10:00+5ююз51096100 2.6 1004902
13:00+6юз51193100 5.1 1001959
16:00+2з51199100 2.8 1002482
19:00+3з71182100 2.9 10041001
22:000зсз9147983 0.4 10081273
27 октября, ср
ср2701:00−1зсз8137782 0.4 10131067
04:00−2з7127674 0.0 1017991
07:00−2з6107770 0.0 1019867
10:00−2зюз611765 0.0 1021806
13:000з71060100 0.0 10221411
16:00+1з6105756 0.1 10221680
19:00−1з376928 0.1 1024226
22:00−2юз36775 0.0 1025160
28 октября, чт
чт2801:00−2ююз3679100 0.0 1025152
04:00−1ю387984 0.0 1025246
07:00−1ю51071100 0.0 1023337
10:000ююз6117389 0.0 1022670
13:00+2ююз61256100 0.0 1020689
16:00+3ююз71256100 0.0 1018716
19:00+1ююз71463100 0.0 1018554
22:00+1ююз71666100 0.0 1016518